sat.trackr.live / text

‹ back to catalog

STARLINK-32510

NORAD 62040 · 2024-216J

PAYLOAD ACTIVE UNKNOWN

§ Identity

Operator
Country
US
Launch date
2024-11-21
Launch site
AFETR
Launch vehicle
Mass (kg)
RCS (m²)

Purposes: comms

External: N2YO · Heavens-Above · Gunter

§ Orbital elements

Epoch: 2026-09-21T22:44:40.746048Z

Period
94.27 min
Inclination
42.9957°
Eccentricity
0.0000465
Mean motion
15.27584838 rev/d
Perigee alt
482.7 km
Apogee alt
483.4 km
Semi-major
6,861.2 km
B*
3.5647e-4
RAAN
235.4934°
Arg perigee
326.5391°
Mean anomaly
33.5431°
Rev number
10,380

§ Raw data

STARLINK-325101 62040U 24216J   26264.94769382  .00009562  00000+0  35647-3 0  99942 62040  42.9957 235.4934 0000465 326.5391  33.5431 15.27584838103806

JSON: /api/v1/satellites/62040 · /tle

For live sub-satellite position, see the globe view (requires WebGL).

§ Visibility from observer

Set your observer location to see the next 7 days of passes ≥ 10°. The values pass through the URL so the page stays shareable.

No JS? Fill the form by hand. The geolocation button needs JavaScript.